Regional Weather Roundup
Issued by NWS

Home | Current Version | Previous Version | Graphics & Text | Print | Product List | Glossary On
Versions: 1 2 3 4 5 6 7 8 9 10 11 12 13 14 15 16 17 18 19 20 21 22 23 24 25 26 27 28 29 30 31 32 33 34 35 36 37 38 39 40 41 42 43 44 45 46 47 48 49 50
034
ASUS43 KMKX 242000
RWRWI

WISCONSIN REGIONAL WEATHER ROUNDUP
NATIONAL WEATHER SERVICE MILWAUKEE/SULLIVAN WI
300 PM CDT WED AUG 24 2016

NOTE: "FAIR" INDICATES FEW OR NO CLOUDS BELOW 12,000 FEET WITH NO
SIGNIFICANT WEATHER AND/OR OBSTRUCTIONS TO VISIBILITY.

WIZ001-002-006>008-014>016-023>028-242100-
NORTHWEST WISCONSIN

CITY           SKY/WX    TMP DP  RH WIND       PRES   REMARKS
SUPERIOR ARPT  MOSUNNY   82  58  44 W10       29.81S HX  82
ASHLAND        CLOUDY    78  67  68 W10       29.83R HX  80
HAYWARD        PTSUNNY   75  66  73 SW9G18    29.89R
SIREN          CLOUDY    79  52  39 W13G18    29.90R
CUMBERLAND     MOSUNNY   75  63  64 W12       29.91S
RICE LAKE      CLOUDY    76  67  73 SW12      29.92S
CHETEK         NOT AVBL
LADYSMITH      CLOUDY    75  66  72 W8        29.91S
EAU CLAIRE     NOT AVBL
MENOMONIE      CLOUDY    78  68  72 W8        29.91S
NEW RICHMOND   MOSUNNY   78  64  62 W7        29.92S HX  80
OSCEOLA        CLOUDY    80  61  52 W8        29.94S HX  81
$$

WIZ003>005-009-010-017-018-242100-
NORTH CENTRAL WISCONSIN

CITY           SKY/WX    TMP DP  RH WIND       PRES   REMARKS
MANITOWISH WTR NOT AVBL
ARBOR VITAE    CLOUDY    72  67  83 W7        29.87S
WOODRUFF       CLOUDY    72  67  83 W7        29.87S
RHINELANDER    CLOUDY    73  69  87 W10       29.89R
EAGLE RIVER    CLOUDY    71  68  90 W7        29.86S
LAND O LAKES   CLOUDY    73  66  79 W7        29.86S
PHILLIPS       CLOUDY    74  67  77 W5        29.89R
TOMAHAWK       CLOUDY    74  66  76 W10       29.89S
MEDFORD        PTSUNNY   76  67  75 W9        29.89S
MERRILL        PTSUNNY   78  67  71 W15       29.88S
$$

WIZ029-030-035-036-043>047-242100-
CENTRAL WISCONSIN

CITY           SKY/WX    TMP DP  RH WIND       PRES   REMARKS
WAUSAU         MOSUNNY   77  67  71 W12       29.87S
MOSINEE        PTSUNNY   75  72  88 SW9       29.91S
MARSHFIELD     MOSUNNY   79  67  66 W12       29.90S HX  81
STEVENS POINT  RAIN      70  69  99 W7        29.91R
WAUPACA        PTSUNNY   82  72  73 SW15      29.88S HX  86
WAUTOMA        CLOUDY    77  71  82 W10       29.90R
WISC RAPIDS    CLOUDY    73  72  96 W8        29.92S
CAMP DOUGLAS   CLOUDY    75  72  88 W9        29.91S
$$

WIZ011>013-019>022-031-037>040-048>050-242100-
NORTHEAST WISCONSIN

CITY           SKY/WX    TMP DP  RH WIND       PRES   REMARKS
ANTIGO         PTSUNNY   73  68  84 W12       29.88F
SHAWANO        CLOUDY    77  70  78 W14G20    29.87R
OCONTO         NOT AVBL
STURGEON BAY   CLOUDY    78  69  73 SW12      29.86S HX  80
GREEN BAY      CLOUDY    78  71  79 SW10      29.86S HX  80
MANITOWOC      PTSUNNY   82  68  61 SW18G26   29.86F HX  85
APPLETON       NOT AVBL
CLINTONVILLE   CLOUDY    75  70  83 W12       29.87S
OSHKOSH        CLOUDY    81  71  71 SW10G17   29.87F HX  85
$$

WIZ032>034-041-042-053>061-242100-
SOUTHWEST WISCONSIN

CITY           SKY/WX    TMP DP  RH WIND       PRES   REMARKS
LA CROSSE      PTSUNNY   84  32  15 VRB6      29.90R HX  81
SPARTA         CLOUDY    77  71  83 SW5       29.91F
VIROQUA        CLOUDY    79  73  81 W6        29.94R HX  82
BOSCOBEL       LGT RAIN  84  74  71 W3        29.90F HX  91
PRAIRIE DU CHI PTSUNNY   85  70  60 W7        29.89S HX  90
PLATTEVILLE    PTSUNNY   83  75  75 SW7       29.93F HX  90
$$

WIZ056-057-062-063-064-067-068-242100-
SOUTH CENTRAL WISCONSIN

CITY           SKY/WX    TMP DP  RH WIND       PRES   REMARKS
REEDSBURG      NOT AVBL
BARABOO/DELLS  CLOUDY    77  70  78 SW12      29.92S
LONE ROCK      NOT AVBL
MINERAL POINT  PTSUNNY   82  73  74 W9        29.93F HX  88
MADISON        PTSUNNY   81  71  71 VRB7      29.91R HX  85
MIDDLETON      CLOUDY    83  72  70 SW12      29.92S HX  88
WATERTOWN      CLOUDY    81  73  76 SW14      29.90F HX  85
MONROE         MOSUNNY   82  70  65 SW13G20   29.93S HX  86
JANESVILLE     MOSUNNY   82  72  69 SW12      29.91F HX  87
$$

WIZ051-052-058>065-066-070>072-242100-
SOUTHEAST WISCONSIN

CITY           SKY/WX    TMP DP  RH WIND       PRES   REMARKS
MILWAUKEE      CLOUDY    83  70  64 W12       29.90F HX  87
WAUKESHA       MOSUNNY   79  68  69 SW10G18   29.92F HX  81
MILWAUKEE/TIMM MOSUNNY   81  66  61 SW12G18   29.90F HX  83
RACINE         CLOUDY    80  70  71 SW10G17   29.92S HX  83
BURLINGTON     CLOUDY    80  69  70 SW12      29.92S HX  82
KENOSHA        PTSUNNY   81  72  74 SW15      29.91F HX  85
FOND DU LAC    CLOUDY    81  72  74 SW8G18    29.89S HX  85
SHEBOYGAN      MOSUNNY   83  69  62 SW17G23   29.88F HX  86
WEST BEND      PTSUNNY   81  68  65 SW14G21   29.90F HX  83
JUNEAU         CLOUDY    80  71  75 S15       29.91F HX  83
$$

LSZ147-162-242100-
LAKE SUPERIOR

STATION/POSITION TIME  TEMP    WIND        PRES    WAVE
                       AIR SEA DIR/SP/G            HT/PER
                 (UTC) (F)     (DEG/KT/KT) (MB)    (FT/S)
W MID LAKE BUOY  1850   69 69  240/ 10/ 12 1008.0F   1
DEVILS ISLAND    1900   70     230/ 12/ 15 1008.9F
PORT WING        1840   74     270/ 13/ 16 1009.8F
SAXON HARBOR     1900   75      60/  4/  8 1009.5S
$$

LMZ867-665-643>646-242100-
LAKE MICHIGAN

STATION/POSITION TIME  TEMP    WIND        PRES    WAVE
                       AIR SEA DIR/SP/G            HT/PER
                 (UTC) (F)     (DEG/KT/KT) (MB)    (FT/S)
CHAMBERS ISLAND  1900   73     190/  5/ 10 1010.8R
S GREEN BAY BUOY 1930   74 73  240/  8/ 10 1010.4S
N MID LAKE BUOY  1850   71 70  200/ 17/ 21 1009.9R   7/ 7
NORTHPORT PIER   1900   69     150/  5/  7 1010.8R
SISTER BAY       1907   71     230/ 12/ 15   N/A
KEWAUNEE LAKESHO 1900          210/ 12/ 17 1010.7F
SHEBOYGAN LAKESH 1900   72     190/ 17/ 19 1011.3F
PORT WASHINGTON  1900   83     240/  8/ 16 1012.9F
ATWATER BUOY     1900   67 45  220/  8/ 12   N/A
MILWAUKEE LAKESH 1910   78     220/ 19/ 20   N/A
S MID LAKE BUOY  1850   74 74  200/ 12/ 14 1012.7F   3/ 6
KENOSHA   LAKESH 1900   78     240/  6/ 15 1012.9F
$$

TC  - TEMPERATURE IN CELSIUS
VSB - VISIBILITY IN STATUTE MILES
WCI - WIND CHILL INDEX
HX  - HEAT INDEX





USA.gov is the U.S. government's official web portal to all federal, state and local government web resources and services.